#timestamp,LO_Frequency,Hit,StdDev 
1689825615.2,286047003.0,N
1689825635.1,286047006.0,N
1689825636.0,286047006.0,N
1689825655.8,286047003.5,N
1689825675.7,286047002.9,N
1689825695.5,286047006.0,N
1689825715.3,286047002.9,N
1689825735.2,286047005.7,N
1689825755.0,286047003.3,N
1689825755.9,286047003.3,Y
1689825775.8,286046999.8,P
1689825795.6,286047000.3,N
1689825815.4,286047000.9,N
1689825835.3,286047000.7,N
1689825855.1,286047001.2,N
1689825875.8,286047000.5,N
1689825895.7,286047000.1,N
1689825915.5,286047000.4,N
1689825935.3,286047000.1,N
1689825955.2,286047000.9,N
1689825975.0,286047000.2,N
1689825975.9,286047000.2,N
1689825995.8,286047000.1,N
1689826015.6,286047000.3,N
1689826035.4,286047000.4,N
1689826055.3,286047000.4,N
1689826075.2,286047000.0,N
1689826095.0,286046999.9,N
1689826095.9,286046999.9,N
1689826115.7,286047000.2,N
1689826135.6,286047002.3,N
1689826155.4,286047002.5,N
1689826175.3,286047001.9,N
1689826195.1,286046999.8,N
1689826196.0,286046999.8,N
1689826215.8,286047002.8,N
1689826235.7,286047000.1,N
1689826255.5,286047002.4,N
1689826275.4,286047000.1,N
1689826295.2,286047000.3,N
1689826315.0,286046999.8,N
1689826315.9,286046999.8,N
1689826335.8,286046999.9,N
1689826355.6,286047000.0,N
1689826375.5,286047000.2,N
1689826395.3,286047000.1,N
1689826415.1,286046999.7,N
1689826435.9,286047002.6,N
1689826455.7,286047002.5,N
1689826475.6,286047002.4,N
1689826495.4,286047002.2,N
1689826515.2,286047002.4,N
1689826535.1,286047001.5,N
1689826536.0,286047001.5,N
1689826555.8,286047002.5,N
1689826575.7,286047004.4,Y
1689826595.5,286047001.6,P
1689826615.4,286047001.5,P
1689826635.2,286047001.5,P
1689826655.0,286047002.0,Y
1689826655.9,286047002.0,P
1689826675.8,286047000.8,N
1689826695.6,286047000.9,N
1689826715.5,286047000.4,N
1689826735.3,286046998.2,Y
1689826755.1,286046998.1,P
1689826775.9,286046999.3,N
1689826795.7,286046998.3,N
1689826815.5,286046998.3,N
1689826835.4,286046998.9,N
1689826855.2,286046998.4,N
1689826875.1,286046998.7,N
1689826876.0,286046998.7,N
1689826895.8,286046998.2,N
1689826915.6,286046998.2,N
1689826935.5,286047000.4,N
1689826955.3,286047001.1,N
1689826975.2,286047001.2,N
1689826995.9,286046998.3,N
1689827015.7,286046999.3,N
1689827035.6,286046999.3,N
1689827055.4,286046998.6,N
1689827075.3,286046998.9,N
1689827095.1,286046999.0,N
1689827096.0,286046999.0,N
1689827115.8,286047001.1,N
1689827135.7,286046998.3,N
1689827155.5,286047001.1,N
1689827175.3,286047000.4,N
1689827195.2,286047000.8,N
1689827215.0,286047000.6,N
1689827215.9,286047000.6,N
1689827235.8,286047000.3,N
1689827255.6,286047000.5,N
1689827275.4,286047000.5,N
1689827295.3,286047000.6,N
1689827315.1,286047000.7,N
1689827335.8,286047001.1,N
1689827355.7,286047001.1,N
1689827375.5,286047000.9,N
1689827395.4,286047000.5,N
1689827415.2,286046998.2,N
1689827435.0,286046998.5,N
1689827435.9,286046998.5,N
1689827455.8,286046998.2,N
1689827475.6,286046998.1,N
1689827495.4,286046998.9,N
1689827515.3,286046998.3,N
1689827535.1,286047001.2,N
1689827555.9,286047000.7,N
1689827575.7,286047000.4,N
1689827595.5,286047000.3,N
1689827615.4,286047001.2,N
1689827635.2,286047000.8,N
1689827655.1,286047000.0,N
1689827656.0,286047000.0,N
1689827675.8,286047001.1,N
1689827695.6,286047001.0,N
1689827715.5,286046998.1,N
1689827735.3,286047000.9,N
1689827755.1,286047000.2,N
1689827775.9,286047000.1,N
1689827795.7,286046999.9,N
1689827815.6,286047000.5,N
1689827835.4,286047000.3,N
1689827855.2,286046999.8,N
1689827875.1,286046999.9,N
1689827876.0,286046999.9,N
1689827895.8,286047000.3,N
1689827915.7,286046999.8,N
1689827935.5,286047000.3,N
1689827955.3,286047000.4,N
1689827975.2,286047002.8,N
1689827995.0,286047000.1,N
1689827995.9,286047000.1,N
1689828015.8,286047000.1,N
1689828035.6,286047002.3,N
1689828055.4,286047000.1,N
1689828075.3,286047000.2,N
1689828095.1,286047000.9,N
1689828115.9,286047000.6,N
1689828135.7,286046999.8,N
1689828155.5,286047000.0,N
1689828175.4,286047000.5,N
1689828195.2,286047000.8,N
1689828215.1,286047000.9,N
1689828216.0,286047000.9,N
1689828235.8,286047000.6,N
1689828255.6,286047000.2,N
1689828275.5,286047000.4,N
1689828295.3,286047000.2,N
1689828315.2,286047000.5,N
1689828335.9,286046999.7,N
1689828355.7,286047002.3,Y
1689828375.6,286047002.7,P
1689828395.4,286047002.2,N
1689828415.2,286047002.2,N
1689828435.1,286047002.5,N
1689828436.0,286047002.5,Y
1689828455.8,286047000.5,P
1689828475.7,286046998.4,N
1689828495.5,286046998.8,N
1689828515.3,286046998.9,N
1689828535.2,286046999.6,N
1689828555.0,286046996.9,N
1689828555.9,286046996.9,N
1689828575.8,286046996.9,N
1689828595.6,286046996.8,N
1689828615.4,286046998.8,N
1689828635.3,286046998.7,N
1689828655.1,286046998.6,N
1689828675.8,286046998.9,N
1689828695.7,286046998.6,N
1689828715.5,286046999.3,N
1689828735.4,286046999.0,N
1689828755.2,286046998.8,N
1689828775.0,286046999.2,N
1689828775.9,286046999.2,N
1689828795.8,286046999.6,N
1689828815.6,286046996.6,N
1689828835.4,286046999.3,N
1689828855.3,286046999.3,N
1689828875.1,286046997.4,N
1689828895.9,286046996.8,N
1689828915.7,286046999.0,N
1689828935.5,286046997.4,N
1689828955.4,286046996.9,N
1689828975.2,286046999.3,N
1689828995.0,286046996.9,N
1689828995.9,286046996.9,N
1689829015.8,286046996.9,Y
1689829035.6,286046998.9,P
1689829055.5,286046999.2,N
1689829075.3,286046998.7,P
1689829095.1,286047000.8,N
1689829115.9,286047000.9,N
1689829135.7,286047000.2,N
1689829155.5,286047000.4,N
1689829175.4,286047001.2,N
1689829195.2,286047000.1,N
